AAL69 RJCC-PGUM

Flight info

Callsign AAL69
Flight time N/A
Altitude 38000
Route HWE V31 MRE V13 YTE Y32 RUBIS Y10 DAIGO Y88 NIKKO Y588 XAC B586 WINZR DCT WUVEN
Aircraft B77W/H-SDE1E2E3FGHIJ2J3J4J5M1RWXY/LB1D1

Departure

Time 2026-04-30 21:38
Airport New Chitose Airport (RJCC)

Arrival

Time N/A
Airport Antonio B. Won Pat International Airport (PGUM)
Time Latitude Longitude Altitude Speed Heading
2026-04-30 18:45 42.78519 141.68173 98 ft 0 kts 313°
2026-04-30 21:26 42.78519 141.68172 98 ft 0 kts 313°
2026-04-30 21:27 42.78487 141.68221 97 ft 3 kts 321°
2026-04-30 21:27 42.78466 141.68233 96 ft 3 kts 353°
2026-04-30 21:27 42.78443 141.68230 96 ft 3 kts 21°
2026-04-30 21:28 42.78419 141.68205 96 ft 0 kts 43°
2026-04-30 21:33 42.78420 141.68208 96 ft 1 kts 43°
2026-04-30 21:33 42.78540 141.68337 95 ft 13 kts 31°
2026-04-30 21:33 42.78637 141.68391 93 ft 14 kts 15°
2026-04-30 21:34 42.78726 141.68410 92 ft 10 kts
2026-04-30 21:34 42.78803 141.68565 89 ft 13 kts 82°
2026-04-30 21:34 42.78813 141.68661 85 ft 9 kts 83°
2026-04-30 21:35 42.78822 141.68759 83 ft 10 kts 88°
2026-04-30 21:35 42.78774 141.68820 82 ft 11 kts 170°
2026-04-30 21:35 42.78752 141.68825 81 ft 0 kts 171°
2026-04-30 21:37 42.78749 141.68826 81 ft 4 kts 171°
2026-04-30 21:37 42.78498 141.68870 81 ft 73 kts 173°
2026-04-30 21:38 42.77750 141.69002 82 ft 141 kts 172°
2026-04-30 21:38 42.76685 141.69199 463 ft 162 kts 171°
2026-04-30 21:38 42.75518 141.69278 1180 ft 175 kts 182°
2026-04-30 21:38 42.74297 141.69176 2026 ft 182 kts 181°
2026-04-30 21:39 42.73057 141.69038 2684 ft 187 kts 184°
2026-04-30 21:39 42.71706 141.68857 3132 ft 203 kts 184°
2026-04-30 21:39 42.70256 141.68562 3571 ft 222 kts 195°
2026-04-30 21:39 42.68818 141.67567 4016 ft 242 kts 211°
2026-04-30 21:40 42.67408 141.66228 4567 ft 257 kts 213°
2026-04-30 21:40 42.65945 141.64830 5408 ft 258 kts 213°
2026-04-30 21:40 42.64478 141.63448 6225 ft 260 kts 213°
2026-04-30 21:40 42.62987 141.62050 6966 ft 264 kts 213°
2026-04-30 21:41 42.61418 141.60579 7729 ft 268 kts 214°
2026-04-30 21:41 42.59896 141.59155 8459 ft 271 kts 213°
2026-04-30 21:41 42.58356 141.57715 9267 ft 271 kts 214°
2026-04-30 21:41 42.56792 141.56253 9947 ft 275 kts 214°
2026-04-30 21:42 42.55190 141.54758 10466 ft 287 kts 214°
2026-04-30 21:42 42.53513 141.53194 10806 ft 305 kts 214°
2026-04-30 21:42 42.51707 141.51509 11137 ft 324 kts 214°
2026-04-30 21:42 42.49810 141.49741 11506 ft 342 kts 214°
2026-04-30 21:43 42.47783 141.47853 11906 ft 360 kts 214°
2026-04-30 21:43 42.45694 141.45908 12433 ft 374 kts 214°
2026-04-30 21:43 42.43530 141.43895 13230 ft 381 kts 214°
2026-04-30 21:43 42.41359 141.41879 14202 ft 385 kts 215°
2026-04-30 21:44 42.39152 141.39830 15273 ft 388 kts 215°
2026-04-30 21:44 42.36936 141.37775 16270 ft 393 kts 215°
2026-04-30 21:44 42.34671 141.35677 17234 ft 398 kts 215°
2026-04-30 21:44 42.32401 141.33574 18192 ft 403 kts 215°
2026-04-30 21:45 42.30082 141.31429 19058 ft 409 kts 215°
2026-04-30 21:45 42.27717 141.29244 20004 ft 412 kts 216°
2026-04-30 21:45 42.25360 141.27068 20946 ft 414 kts 216°
2026-04-30 21:45 42.22996 141.24887 21818 ft 417 kts 217°
2026-04-30 21:46 42.20605 141.22684 22656 ft 420 kts 218°
2026-04-30 21:46 42.18203 141.20471 23444 ft 424 kts 218°
2026-04-30 21:46 42.15751 141.18216 24277 ft 427 kts 218°
2026-04-30 21:46 42.13307 141.15968 25137 ft 429 kts 218°
2026-04-30 21:47 42.10835 141.13699 25953 ft 433 kts 218°
2026-04-30 21:47 42.08371 141.11438 26705 ft 437 kts 218°
2026-04-30 21:47 42.05838 141.09119 27539 ft 439 kts 219°
2026-04-30 21:47 42.03340 141.06831 28334 ft 441 kts 219°
2026-04-30 21:48 42.00791 141.04500 29067 ft 445 kts 218°
2026-04-30 21:48 41.98224 141.02155 29849 ft 447 kts 218°
2026-04-30 21:48 41.95681 140.99837 30844 ft 442 kts 219°
2026-04-30 21:48 41.93177 140.97559 32105 ft 430 kts 220°
2026-04-30 21:49 41.90766 140.95369 33559 ft 412 kts 220°
2026-04-30 21:49 41.88399 140.93219 34822 ft 398 kts 221°
2026-04-30 21:49 41.86157 140.91180 35905 ft 386 kts 221°
2026-04-30 21:49 41.83978 140.89201 36790 ft 377 kts 221°
2026-04-30 21:50 41.81826 140.87253 37352 ft 375 kts 221°
2026-04-30 21:50 41.79551 140.85496 37712 ft 382 kts 216°
2026-04-30 21:50 41.77068 140.84061 37957 ft 389 kts 211°
2026-04-30 21:50 41.74474 140.83017 37973 ft 395 kts 205°
2026-04-30 21:51 41.68964 140.82059 37975 ft 405 kts 198°
2026-04-30 21:51 41.63278 140.81409 37964 ft 409 kts 198°
2026-04-30 21:52 41.57548 140.80727 37954 ft 408 kts 197°
2026-04-30 21:52 41.51929 140.80051 37947 ft 405 kts 198°
2026-04-30 21:53 41.46305 140.79362 37943 ft 405 kts 198°
2026-04-30 21:53 41.40767 140.78685 37937 ft 400 kts 198°
2026-04-30 21:54 41.35161 140.77994 37929 ft 404 kts 198°
2026-04-30 21:54 41.29644 140.77321 37926 ft 395 kts 198°
2026-04-30 21:55 41.24173 140.76651 37931 ft 395 kts 198°
2026-04-30 21:55 41.18645 140.75970 37917 ft 396 kts 199°
2026-04-30 21:56 41.13105 140.75290 37917 ft 401 kts 199°
2026-04-30 21:56 41.07591 140.74625 37911 ft 393 kts 199°
2026-04-30 21:57 41.02112 140.73952 37908 ft 399 kts 199°
2026-04-30 21:57 40.96603 140.73288 37903 ft 392 kts 199°
2026-04-30 21:58 40.91089 140.72612 37910 ft 399 kts 198°
2026-04-30 21:58 40.85600 140.71954 37932 ft 390 kts 198°
2026-04-30 21:59 40.80188 140.71295 37939 ft 395 kts 199°
2026-04-30 22:00 40.72040 140.70288 37936 ft 391 kts 200°
2026-04-30 22:00 40.63934 140.69047 37929 ft 394 kts 200°
2026-04-30 22:01 40.58503 140.68230 37917 ft 388 kts 199°
2026-04-30 22:01 40.53183 140.67430 37912 ft 387 kts 200°
2026-04-30 22:02 40.47836 140.66626 37906 ft 388 kts 200°
2026-04-30 22:02 40.42490 140.65820 37906 ft 389 kts 198°
2026-04-30 22:03 40.37103 140.65013 37903 ft 391 kts 199°
2026-04-30 22:03 40.31712 140.64210 37896 ft 387 kts 199°
2026-04-30 22:04 40.26330 140.63414 37902 ft 386 kts 198°
2026-04-30 22:05 40.18355 140.62245 37894 ft 389 kts 199°
2026-04-30 22:05 40.13064 140.61467 37889 ft 379 kts 199°
2026-04-30 22:06 40.07773 140.60681 37897 ft 384 kts 199°
2026-04-30 22:06 39.99817 140.59511 37898 ft 381 kts 199°
2026-04-30 22:07 39.94534 140.58730 37897 ft 385 kts 198°
2026-04-30 22:07 39.89244 140.57956 37903 ft 381 kts 198°
2026-04-30 22:08 39.83934 140.57173 37913 ft 386 kts 198°
2026-04-30 22:08 39.78602 140.56396 37912 ft 380 kts 198°
2026-04-30 22:09 39.73351 140.55627 37916 ft 382 kts 198°
2026-04-30 22:09 39.68065 140.54848 37908 ft 383 kts 198°
2026-04-30 22:10 39.62772 140.54039 37906 ft 383 kts 199°
2026-04-30 22:10 39.57449 140.53226 37915 ft 384 kts 199°
2026-04-30 22:11 39.49494 140.52016 37918 ft 385 kts 198°
2026-04-30 22:12 39.44192 140.51211 37907 ft 386 kts 199°
2026-04-30 22:12 39.38831 140.50400 37910 ft 386 kts 198°
2026-04-30 22:13 39.33494 140.49596 37922 ft 382 kts 198°
2026-04-30 22:13 39.28204 140.48793 37912 ft 387 kts 199°
2026-04-30 22:14 39.22856 140.47989 37919 ft 387 kts 199°
2026-04-30 22:14 39.17517 140.47185 37910 ft 388 kts 199°
2026-04-30 22:15 39.11940 140.46352 37891 ft 386 kts 198°
2026-04-30 22:15 39.05979 140.45480 37894 ft 388 kts 198°
2026-04-30 22:16 39.00655 140.44708 37885 ft 387 kts 197°
2026-04-30 22:17 38.89896 140.43146 37872 ft 389 kts 197°
2026-04-30 22:17 38.81572 140.41940 37910 ft 387 kts 197°
2026-04-30 22:18 38.73564 140.40782 37903 ft 387 kts 198°
2026-04-30 22:19 38.65561 140.39630 37898 ft 384 kts 198°
2026-04-30 22:20 38.57503 140.38467 37894 ft 387 kts 198°
2026-04-30 22:20 38.49407 140.37305 37905 ft 388 kts 197°
2026-04-30 22:21 38.44025 140.36534 37900 ft 388 kts 197°
2026-04-30 22:21 38.38509 140.36543 37890 ft 407 kts 185°
2026-04-30 22:22 38.32928 140.38313 37902 ft 425 kts 175°
2026-04-30 22:22 38.27334 140.40782 37905 ft 424 kts 175°
2026-04-30 22:23 38.21720 140.43243 37893 ft 428 kts 175°
2026-04-30 22:23 38.16085 140.45703 37901 ft 426 kts 174°
2026-04-30 22:24 38.10492 140.48132 37895 ft 429 kts 174°
2026-04-30 22:24 38.04736 140.50629 37900 ft 426 kts 174°
2026-04-30 22:25 37.99089 140.53067 37898 ft 431 kts 174°
2026-04-30 22:25 37.93418 140.55515 37898 ft 431 kts 174°
2026-04-30 22:26 37.84891 140.59184 37918 ft 435 kts 174°
2026-04-30 22:27 37.79149 140.61574 37911 ft 424 kts 178°
2026-04-30 22:27 37.70640 140.62259 37911 ft 400 kts 198°
2026-04-30 22:28 37.62619 140.60069 37898 ft 396 kts 201°
2026-04-30 22:29 37.51956 140.56990 37890 ft 393 kts 201°
2026-04-30 22:31 37.33257 140.51634 37900 ft 394 kts 201°
2026-04-30 22:32 37.19788 140.47795 37906 ft 397 kts 200°
2026-04-30 22:33 37.06296 140.43968 37910 ft 398 kts 200°
2026-04-30 22:35 36.92735 140.40135 37889 ft 398 kts 200°
2026-04-30 22:36 36.79278 140.35863 37903 ft 394 kts 209°
2026-04-30 22:37 36.72552 140.30280 37901 ft 385 kts 226°
2026-04-30 22:37 36.70741 140.27812 37910 ft 386 kts 231°
2026-04-30 22:38 36.64802 140.16701 37887 ft 391 kts 236°
2026-04-30 22:39 36.60361 140.08250 37886 ft 388 kts 236°
2026-04-30 22:40 36.51392 139.91544 37878 ft 388 kts 230°
2026-04-30 22:41 36.45235 139.85023 37858 ft 392 kts 214°
2026-04-30 22:41 36.40210 139.82274 37847 ft 396 kts 206°
2026-04-30 22:43 36.24671 139.75023 37841 ft 399 kts 206°
2026-04-30 22:44 36.14266 139.70169 37853 ft 400 kts 206°
2026-04-30 22:45 35.98638 139.62859 37848 ft 402 kts 206°
2026-04-30 22:47 35.82111 139.58177 37854 ft 411 kts 194°
2026-04-30 22:48 35.70733 139.56445 37854 ft 410 kts 194°
2026-04-30 22:49 35.53519 139.54498 37834 ft 426 kts 182°
2026-04-30 22:51 35.35807 139.57191 37825 ft 431 kts 182°
2026-04-30 22:52 35.26903 139.58311 37801 ft 419 kts 188°
2026-04-30 22:52 35.21218 139.57369 37796 ft 412 kts 200°
2026-04-30 22:53 35.15700 139.55597 37781 ft 408 kts 201°
2026-04-30 22:53 35.07397 139.52925 37770 ft 411 kts 200°
2026-04-30 22:55 34.93585 139.48511 37762 ft 410 kts 200°
2026-04-30 22:56 34.82518 139.44987 37778 ft 413 kts 201°
2026-04-30 22:57 34.68367 139.41902 37768 ft 426 kts 184°
2026-04-30 22:58 34.56463 139.43765 37774 ft 431 kts 181°
2026-04-30 22:59 34.38501 139.46666 37780 ft 432 kts 181°